ONEWEB-0194 (48237 NORAD) Tracking and Keplerian Element Data

This shows tracking and keplerian element data for the satellite.

Feedback or suggestion? Click here.




ElementValue
Catalog48237
NameONEWEB-0194
Epoch Orbit177
Epoch Day136.75001157
Epoch Year2021
RAAN305.7546
Inclination87.4172
Eccentricity0.0006922
Argument of Perigee190.1008
Mean Anonmoly66.4128
Mean Motion15.34181455
Decay Rate-0.01375987
L11 48237U 21031AD 21136.75001157 -.01375987 00000-0 -45738-1 0 9990
L22 48237 87.4172 305.7546 0006922 190.1008 66.4128 15.34181455 1772

Live tracking and technical data element details for ONEWEB-0194 (NORAD 48237). ONEWEB-0194 can be tracked NOW for your location showing map with azimuth and elevation plus other details from your city location.

Track the satellite on the map from your city or location and see movement details for azimuth, elevation, latitude, longitude, range, height, and movement on the map or in text.







IsCatalogInMostPopularTable: catalog: 48237, numindb: 7
Update: records affected: 1



GetName: 48237 ONEWEB-0194

Hit Count: updated at: Mon, 17 May 2021 17:03:17 GMT